Temp
71 74 79 79 79 79 79 79 78 78 78 78 78 78 78 77 78 78 78 77 77 78 78 78 78 77 77 78 77 77 77 77 77 78 78 78 76 76 77 80 80 81 79
73 75 78 78 79 79 79 78 78 78 77 78 78 78 78 77 78 78 77 77 77 78 78 78 77 77 77 77 77 77 77 77 77 77 78 76 76 76 75 78 80 80 79
73 75 77 78 78 78 78 78 77 77 77 77 78 78 77 77 78 78 77 77 78 78 78 78 77 77 77 77 77 76 76 76 76 76 77 72 72 77 77 74 80 79 79
73 74 75 78 78 78 78 78 77 77 77 77 77 77 77 77 77 77 77 77 78 78 78 78 77 77 77 77 77 76 76 76 76 76 72 71 71 75 78 79 79 79 79
72 74 74 78 78 78 78 77 77 77 77 77 77 78 78 77 77 77 77 77 78 78 78 78 77 77 77 77 77 77 76 76 76 76 72 70 70 74 77 78 79 79 79
72 74 76 78 78 78 78 77 77 77 77 77 78 78 78 77 77 76 77 77 77 78 78 78 77 77 77 77 77 77 77 77 76 73 71 71 72 73 76 78 79 79 78
71 72 74 77 77 78 78 77 77 77 77 77 77 77 77 77 76 76 77 77 77 77 77 77 77 77 76 76 76 76 75 76 76 73 72 71 71 73 77 78 79 78 78
72 71 72 77 77 77 77 77 77 76 76 76 77 77 77 76 76 76 76 77 77 77 77 77 77 76 76 75 75 75 75 75 76 73 72 71 71 74 77 78 78 78 78
73 71 71 75 76 78 77 77 76 76 76 76 76 76 76 76 76 76 76 76 76 76 76 76 76 76 75 75 75 75 75 75 74 72 73 72 72 75 77 78 78 78 78
71 71 69 70 74 74 74 77 76 76 76 76 76 76 76 76 76 76 75 75 76 76 76 76 76 76 75 74 74 74 74 75 73 71 71 71 73 75 77 78 78 78 77
72 69 69 69 71 72 72 74 76 77 76 76 76 76 74 72 72 74 74 75 76 76 76 76 76 75 75 74 74 74 74 70 70 70 70 71 73 75 76 77 78 77 77
71 70 71 71 71 71 74 70 73 72 73 73 73 72 72 69 69 71 73 75 76 76 76 76 75 75 75 71 70 72 70 69 69 69 70 72 73 75 76 77 78 77 77
80 75 72 71 70 70 72 70 71 71 71 70 70 69 70 69 69 71 68 71 70 74 71 73 73 72 70 69 68 67 68 67 68 69 70 72 73 75 76 77 77 77 77
75 76 74 73 71 69 72 71 72 71 70 70 70 68 68 68 66 67 67 67 67 68 69 69 69 69 69 68 68 67 67 67 68 68 68 72 73 74 76 77 78 77 77
74 75 73 72 72 71 69 71 70 70 71 70 69 68 69 68 66 65 66 66 66 66 67 67 67 67 67 67 68 67 68 68 68 69 68 70 72 74 75 77 78 78 78
73 73 75 71 72 72 69 70 70 71 70 68 68 68 69 68 65 65 65 65 64 65 66 67 67 66 66 66 66 67 67 67 68 68 69 68 71 73 75 77 78 78 78
72 72 70 71 70 70 70 71 71 70 70 69 69 68 68 67 65 65 64 64 63 65 66 65 65 65 64 65 65 66 67 67 68 67 68 68 70 71 73 75 76 76 76
70 71 71 72 68 69 70 71 71 70 69 69 68 67 68 67 66 65 64 63 65 64 64 64 64 64 64 63 63 64 64 64 66 67 68 67 69 69 71 75 76 76 75
70 69 70 65 67 68 69 69 68 67 67 67 67 67 67 67 67 65 64 64 64 63 63 63 63 64 63 62 62 63 62 62 64 67 67 67 68 69 68 71 73 74 74
70 67 66 65 65 65 65 64 64 65 65 66 66 66 67 67 67 65 65 65 64 63 62 62 63 62 63 62 62 62 62 62 64 64 65 68 68 69 68 68 71 74 73
67 65 65 64 61 64 64 63 63 64 65 65 66 67 67 67 67 66 65 65 64 63 63 63 62 62 61 62 61 60 61 62 63 64 63 66 67 68 68 68 67 69 72
66 67 64 62 61 64 64 62 63 63 63 64 65 67 68 68 67 67 66 64 64 62 62 62 62 61 60 61 59 57 57 59 61 63 63 64 65 65 68 68 65 66 69
64 65 64 62 63 63 63 63 61 62 62 62 63 64 66 67 68 68 65 64 63 63 62 62 62 61 58 59 60 58 54 55 57 61 61 60 64 63 65 66 66 66 68
68 64 63 63 63 64 64 63 64 62 62 61 62 63 65 67 67 65 64 64 63 62 61 61 61 61 59 57 58 60 59 59 56 56 58 59 62 63 62 64 66 67 67
65 62 63 63 64 64 64 65 64 61 61 61 62 62 63 64 65 65 65 65 64 62 62 61 60 59 59 58 58 57 58 57 58 57 55 58 60 61 62 63 64 66 66
61 61 63 63 62 63 64 64 64 62 61 62 60 61 61 61 62 64 64 64 63 62 61 61 61 60 59 60 59 59 58 57 56 57 55 56 57 59 62 61 62 63 64
MSLP
1007.27 1007.30 1007.68 1008.22 1008.60 1009.05 1009.62 1010.05 1010.19 1010.26 1010.41 1010.58 1010.72 1010.80 1011.00 1011.31 1011.73 1012.20 1012.53 1012.81 1013.06 1013.32 1013.55 1013.78 1013.99 1014.15 1014.32 1014.54 1014.60 1014.68 1014.69 1014.68 1014.69 1014.65 1014.60 1014.59 1014.75 1014.73 1014.72 1014.67 1014.80 1014.78 1015.06
1005.87 1007.02 1007.50 1008.01 1008.42 1008.80 1009.40 1009.86 1010.19 1010.27 1010.35 1010.49 1010.70 1010.79 1011.15 1011.43 1011.74 1012.03 1012.38 1012.71 1013.05 1013.35 1013.63 1013.86 1014.05 1014.27 1014.48 1014.63 1014.75 1014.76 1014.73 1014.88 1014.92 1014.93 1014.83 1014.81 1014.76 1014.89 1014.99 1014.75 1014.73 1014.81 1014.97
1005.79 1006.78 1007.27 1007.77 1008.26 1008.53 1009.00 1009.58 1009.96 1010.10 1010.13 1010.39 1010.65 1010.88 1011.15 1011.52 1011.82 1012.08 1012.33 1012.55 1012.89 1013.17 1013.50 1013.77 1014.01 1014.17 1014.44 1014.70 1014.83 1014.83 1014.88 1014.91 1014.99 1015.05 1014.96 1015.13 1015.04 1014.93 1015.03 1015.12 1014.78 1014.83 1014.98
1005.57 1006.32 1006.95 1007.42 1007.92 1008.31 1008.63 1009.28 1009.79 1009.85 1009.83 1010.23 1010.67 1011.06 1011.29 1011.63 1011.83 1012.15 1012.42 1012.66 1012.93 1013.22 1013.53 1013.73 1013.93 1014.13 1014.29 1014.59 1014.79 1014.93 1014.92 1014.97 1014.92 1014.98 1015.20 1015.35 1015.33 1015.17 1015.07 1014.89 1014.74 1014.84 1015.00
1005.81 1006.05 1006.63 1007.03 1007.53 1008.01 1008.50 1009.09 1009.77 1010.00 1010.07 1010.16 1010.58 1011.07 1011.42 1011.72 1011.98 1012.25 1012.57 1012.79 1012.99 1013.21 1013.50 1013.64 1013.92 1014.06 1014.12 1014.39 1014.67 1014.84 1014.95 1014.94 1014.96 1015.05 1015.27 1015.36 1015.43 1015.32 1015.09 1014.87 1014.79 1014.75 1014.87
1005.66 1006.02 1006.56 1006.83 1007.36 1007.89 1008.37 1008.80 1009.50 1010.04 1010.15 1010.39 1010.49 1010.88 1011.37 1011.63 1011.88 1012.17 1012.46 1012.77 1013.03 1013.30 1013.45 1013.62 1013.71 1014.00 1014.06 1014.09 1014.45 1014.65 1014.78 1014.85 1014.87 1015.03 1015.20 1015.24 1015.29 1015.29 1015.03 1014.70 1014.46 1014.70 1014.79
1005.64 1005.95 1006.36 1006.77 1007.11 1007.49 1007.88 1008.43 1008.99 1009.57 1009.80 1010.07 1010.37 1010.69 1010.98 1011.40 1011.71 1011.97 1012.31 1012.72 1013.01 1013.26 1013.29 1013.43 1013.62 1013.82 1014.04 1014.07 1014.21 1014.50 1014.65 1014.73 1014.75 1014.91 1015.02 1015.16 1015.22 1015.13 1014.92 1014.49 1014.26 1014.59 1014.78
1005.59 1006.22 1006.56 1006.59 1006.74 1006.89 1007.38 1007.95 1008.50 1008.90 1009.41 1009.84 1009.96 1010.37 1010.61 1011.02 1011.42 1011.70 1012.01 1012.40 1012.78 1013.05 1013.21 1013.31 1013.36 1013.58 1013.85 1014.04 1014.17 1014.41 1014.50 1014.61 1014.65 1014.77 1014.90 1015.05 1015.09 1014.98 1014.79 1014.39 1014.46 1014.52 1014.72
1005.87 1006.32 1006.51 1006.52 1007.07 1007.06 1007.39 1007.60 1008.10 1008.65 1009.04 1009.27 1009.58 1009.83 1010.13 1010.63 1011.07 1011.28 1011.64 1012.09 1012.50 1012.75 1012.88 1013.06 1013.26 1013.41 1013.66 1013.86 1013.96 1014.21 1014.32 1014.36 1014.47 1014.64 1014.70 1014.93 1014.96 1014.81 1014.76 1014.58 1014.62 1014.59 1014.61
1005.89 1006.14 1006.38 1006.66 1006.93 1007.01 1007.46 1007.87 1008.42 1008.56 1008.80 1008.77 1008.99 1009.36 1009.73 1010.19 1010.57 1011.10 1011.40 1011.84 1012.23 1012.43 1012.60 1012.75 1012.94 1013.11 1013.30 1013.57 1013.77 1013.95 1014.12 1014.16 1014.27 1014.46 1014.58 1014.78 1014.75 1014.63 1014.60 1014.60 1014.58 1014.63 1014.67
1005.80 1005.85 1006.13 1006.54 1006.57 1006.83 1007.19 1007.60 1008.07 1008.35 1008.58 1008.68 1008.78 1009.11 1009.58 1009.90 1010.23 1010.62 1011.21 1011.58 1011.94 1012.14 1012.38 1012.47 1012.63 1012.82 1013.15 1013.39 1013.63 1013.78 1013.90 1014.11 1014.22 1014.34 1014.47 1014.62 1014.59 1014.47 1014.41 1014.47 1014.49 1014.56 1014.58
1005.57 1005.35 1005.51 1005.76 1006.06 1006.56 1006.92 1007.46 1007.63 1007.97 1008.35 1008.48 1008.57 1008.77 1009.17 1009.53 1009.91 1010.36 1010.85 1011.32 1011.64 1011.84 1012.08 1012.19 1012.38 1012.54 1012.80 1013.11 1013.47 1013.73 1013.89 1014.07 1014.06 1014.12 1014.25 1014.36 1014.41 1014.28 1014.19 1014.18 1014.22 1014.28 1014.44
1003.92 1004.59 1004.67 1005.30 1005.82 1006.18 1006.43 1006.74 1007.20 1007.51 1007.80 1007.93 1008.17 1008.45 1008.81 1009.38 1009.79 1010.10 1010.67 1011.02 1011.39 1011.61 1011.90 1012.05 1012.23 1012.30 1012.64 1013.06 1013.31 1013.67 1013.77 1013.97 1013.88 1013.87 1013.89 1013.99 1014.13 1014.08 1013.95 1013.90 1013.94 1014.06 1014.28
1003.99 1003.78 1003.98 1004.49 1005.15 1005.52 1006.08 1006.01 1006.15 1006.74 1007.06 1007.20 1007.41 1008.06 1008.47 1009.04 1009.56 1010.06 1010.48 1010.85 1011.15 1011.49 1011.86 1012.05 1012.25 1012.31 1012.59 1012.86 1013.02 1013.35 1013.50 1013.64 1013.61 1013.60 1013.67 1013.71 1013.76 1013.76 1013.66 1013.65 1013.66 1013.77 1013.98
1003.78 1003.27 1003.56 1003.98 1004.31 1004.73 1005.35 1005.58 1005.70 1005.71 1006.10 1006.59 1006.99 1007.36 1007.83 1008.51 1009.06 1009.77 1010.33 1010.62 1011.07 1011.51 1011.72 1011.86 1012.01 1012.23 1012.44 1012.63 1012.70 1013.02 1013.23 1013.23 1013.22 1013.28 1013.27 1013.33 1013.35 1013.42 1013.42 1013.38 1013.39 1013.57 1013.76
1003.11 1002.98 1002.50 1003.04 1003.04 1003.76 1004.07 1004.44 1004.33 1005.14 1005.66 1005.99 1006.39 1006.71 1007.29 1007.83 1008.56 1009.32 1010.08 1010.59 1010.94 1011.13 1011.15 1011.29 1011.76 1012.11 1012.20 1012.42 1012.55 1012.70 1012.90 1012.98 1012.95 1012.93 1012.92 1012.95 1013.04 1013.02 1013.08 1013.01 1013.12 1013.31 1013.51
1002.43 1002.27 1002.33 1002.01 1002.46 1002.80 1002.83 1003.20 1003.93 1004.03 1004.51 1005.05 1005.48 1006.01 1006.64 1007.39 1008.12 1008.89 1009.39 1010.09 1010.43 1010.47 1010.67 1010.93 1011.23 1011.83 1012.08 1012.28 1012.33 1012.47 1012.59 1012.57 1012.68 1012.66 1012.66 1012.73 1012.73 1012.80 1012.75 1012.70 1012.83 1013.12 1013.48
1001.57 1001.32 1001.12 1001.32 1001.56 1001.85 1002.01 1002.34 1002.91 1003.40 1004.12 1004.49 1005.04 1005.60 1006.42 1007.07 1007.59 1008.18 1008.76 1009.27 1009.48 1010.18 1010.73 1010.98 1011.08 1011.55 1011.80 1012.04 1012.03 1012.13 1012.36 1012.48 1012.36 1012.38 1012.43 1012.48 1012.51 1012.58 1012.59 1012.48 1012.47 1012.94 1013.26
1000.61 1000.50 1000.47 1000.74 1000.92 1000.76 1001.23 1001.83 1002.39 1003.01 1003.70 1004.38 1004.88 1005.49 1006.13 1006.49 1006.98 1007.52 1008.12 1008.61 1009.06 1009.68 1010.36 1010.73 1010.99 1011.21 1011.56 1011.82 1011.84 1012.02 1012.19 1012.18 1012.18 1012.12 1012.23 1012.17 1012.24 1012.33 1012.43 1012.42 1012.42 1012.78 1013.06
999.73 999.79 999.78 999.91 1000.04 1000.42 1001.02 1001.87 1002.50 1003.06 1003.50 1004.05 1004.63 1005.18 1005.64 1006.19 1006.53 1007.13 1007.89 1008.38 1008.84 1009.16 1010.01 1010.41 1010.68 1011.05 1011.32 1011.53 1011.87 1011.93 1011.95 1011.84 1011.95 1012.01 1012.03 1011.89 1012.02 1012.11 1012.29 1012.57 1012.56 1012.63 1012.85
999.17 999.42 999.21 999.45 999.51 1000.13 1000.94 1001.72 1002.44 1002.76 1003.25 1003.91 1004.39 1004.80 1005.28 1005.78 1006.13 1006.73 1007.45 1008.12 1008.46 1008.93 1009.44 1009.97 1010.55 1010.94 1011.36 1011.65 1011.92 1011.81 1011.56 1011.56 1011.63 1011.69 1011.73 1011.83 1011.91 1011.85 1012.11 1012.39 1012.60 1012.80 1012.75
999.45 998.99 998.76 998.99 999.32 999.60 999.97 1000.77 1001.50 1002.22 1003.16 1003.62 1004.11 1004.55 1004.84 1005.41 1005.81 1006.39 1006.87 1007.39 1008.07 1008.77 1009.40 1009.84 1010.28 1010.85 1011.21 1011.40 1011.64 1011.84 1011.66 1011.55 1011.38 1011.40 1011.60 1011.69 1011.75 1011.83 1011.91 1012.16 1012.59 1012.59 1012.63
998.86 998.63 998.50 998.75 998.99 999.40 999.99 1000.65 1001.59 1002.15 1002.96 1003.70 1004.08 1004.34 1004.79 1005.27 1005.67 1006.06 1006.58 1007.14 1007.85 1008.48 1009.10 1009.67 1010.03 1010.48 1010.92 1011.32 1011.43 1011.45 1011.73 1011.60 1011.52 1011.43 1011.51 1011.64 1011.76 1011.90 1011.92 1011.98 1012.24 1012.35 1012.54
997.95 998.03 998.04 998.61 998.82 999.12 999.79 1000.31 1000.89 1001.48 1002.60 1003.06 1003.39 1003.98 1004.63 1005.19 1005.59 1006.06 1006.67 1007.19 1007.72 1008.30 1008.84 1009.23 1009.71 1010.00 1010.55 1010.90 1011.37 1011.35 1011.33 1011.44 1011.63 1011.70 1011.77 1011.66 1011.86 1011.88 1011.94 1011.87 1011.97 1012.13 1012.40
997.83 997.88 998.13 998.42 998.68 999.04 999.64 1000.03 1000.75 1001.65 1002.11 1002.73 1003.46 1004.17 1004.78 1005.33 1005.71 1006.12 1006.61 1007.05 1007.56 1008.01 1008.48 1008.86 1009.32 1009.86 1010.23 1010.44 1010.67 1011.05 1011.37 1011.57 1011.67 1011.78 1011.97 1012.11 1011.96 1012.07 1012.06 1012.08 1012.06 1012.20 1012.42
997.64 997.97 998.34 998.47 998.79 999.19 999.88 1000.15 1000.78 1001.50 1002.28 1002.97 1003.78 1004.41 1004.98 1005.54 1005.88 1006.12 1006.47 1006.96 1007.41 1007.80 1008.21 1008.62 1009.13 1009.52 1009.76 1010.02 1010.25 1010.43 1010.68 1011.14 1011.51 1011.68 1011.99 1012.17 1012.07 1012.25 1012.07 1012.32 1012.40 1012.54 1012.63
Wind_Speed
6 14 22 19 18 18 17 18 16 17 18 18 19 18 18 17 18 16 14 12 11 10 9 8 7 6 6 6 6 5 5 5 6 6 7 8 6 7 8 2 4 4 8
14 16 22 21 20 20 18 17 17 17 17 17 17 18 17 17 17 17 16 15 12 10 8 7 6 5 4 4 4 4 4 4 5 5 6 7 7 5 6 6 6 5 8
16 17 18 22 20 20 19 18 18 19 18 18 17 17 17 16 16 16 15 14 13 11 8 6 5 4 2 2 2 2 2 2 3 4 5 4 5 6 2 8 7 6 8
16 16 16 22 21 21 20 19 18 18 19 18 17 17 17 16 16 15 14 14 13 11 10 8 6 4 2 1 2 2 2 3 3 4 3 3 5 7 7 6 5 10 8
13 15 15 23 23 22 21 19 18 17 17 17 17 17 16 16 14 14 13 12 11 11 10 8 6 4 3 2 3 4 4 4 4 3 2 3 3 6 9 9 8 9 11
12 13 17 23 22 21 20 20 19 18 17 16 17 16 16 16 15 14 13 11 11 10 9 8 6 4 5 4 6 6 7 7 6 2 2 3 4 8 11 12 12 12 11
11 11 14 22 22 22 22 22 21 20 19 18 17 18 17 16 15 15 13 12 11 10 9 8 7 6 5 3 5 6 6 7 5 4 3 3 4 9 12 10 6 9 10
11 9 9 20 23 23 22 22 22 21 20 19 19 18 18 17 17 16 15 14 13 12 10 9 8 6 5 4 4 6 7 8 7 3 4 3 6 10 11 7 7 10 10
7 7 8 11 15 19 20 22 22 20 20 20 19 19 19 18 18 17 16 15 15 13 12 10 9 7 6 7 6 7 7 8 5 4 5 2 6 8 9 6 6 8 9
6 7 8 7 10 11 11 19 19 19 20 21 21 20 20 19 18 17 15 15 15 14 13 11 10 9 8 7 8 8 8 9 4 4 3 3 8 9 8 8 8 7 7
5 7 7 8 9 10 8 10 17 20 20 20 19 20 17 9 11 14 13 16 15 14 13 13 11 10 8 8 8 9 10 2 4 3 3 7 10 10 9 9 9 9 7
6 8 11 12 12 9 8 7 10 9 10 10 11 12 9 8 8 10 12 17 15 14 13 12 11 11 9 3 2 6 2 4 4 4 4 9 11 12 11 11 10 10 9
14 6 12 11 9 10 11 7 6 6 7 7 10 10 9 6 7 7 4 5 5 11 4 6 6 4 4 3 3 3 4 4 3 3 6 10 11 12 12 11 10 10 9
9 10 7 11 11 11 8 8 10 9 9 8 10 10 8 6 7 6 5 5 4 3 3 4 3 3 4 5 5 5 5 5 3 3 5 11 12 12 12 12 11 9 9
9 11 10 9 14 12 12 9 9 11 10 9 7 10 10 8 8 5 5 5 4 3 3 4 4 4 5 6 5 6 6 7 6 4 3 9 12 12 13 14 12 11 11
9 10 12 12 15 12 13 15 12 9 8 8 8 9 12 8 7 7 6 5 4 4 5 5 4 5 5 4 4 5 7 6 6 4 4 4 10 10 12 12 13 14 13
9 9 12 13 9 14 16 14 11 9 9 9 9 10 12 10 10 9 7 6 5 6 6 3 3 3 3 4 5 5 5 6 5 5 4 4 4 9 12 12 14 14 12
10 11 9 7 11 14 15 12 10 9 8 8 7 7 11 10 12 9 7 6 7 3 3 3 3 4 4 4 4 5 4 4 5 5 4 4 4 3 7 11 11 13 11
11 10 10 8 11 15 12 8 7 7 6 5 5 7 10 11 12 10 7 7 6 5 5 4 3 3 2 3 3 2 3 4 5 4 6 6 6 4 3 6 10 10 10
9 9 9 7 9 7 5 5 4 5 5 6 6 7 10 8 11 10 7 7 6 5 4 3 4 3 1 1 2 4 4 4 4 4 4 4 4 5 3 4 3 5 9
10 9 10 7 7 9 5 5 4 6 6 5 5 8 9 9 10 10 6 6 6 6 6 5 3 3 2 3 2 2 3 4 5 5 3 3 4 5 4 4 3 3 4
10 13 10 7 7 7 6 4 4 5 3 4 4 6 8 9 9 9 9 7 7 5 5 5 4 2 3 4 2 1 1 2 2 5 4 4 4 2 4 5 5 4 4
10 10 8 6 8 7 8 7 4 6 5 3 3 3 5 8 10 9 7 7 6 4 5 5 6 8 4 3 3 2 1 3 1 1 3 3 3 3 3 4 5 5 5
12 5 3 6 8 9 9 8 10 5 5 3 3 3 4 6 6 6 6 6 6 4 5 5 5 5 4 4 2 3 1 2 1 1 2 1 2 3 3 2 4 4 5
6 6 6 7 8 9 7 9 8 7 4 4 5 7 5 4 5 6 6 6 5 4 4 5 5 5 4 3 3 3 1 1 1 1 1 2 1 2 1 0 2 2 3
3 4 5 7 7 8 7 9 10 11 9 8 5 4 4 3 3 5 5 5 5 5 5 4 5 6 5 3 3 3 3 3 3 2 1 1 1 1 2 3 3 2 2
Wind_Direction
208 164 167 169 166 166 170 170 167 161 158 156 155 151 149 147 148 148 144 140 140 135 128 117 106 96 87 82 77 67 53 42 30 22 25 23 29 2 6 181 163 153 147
136 164 168 170 171 172 178 177 172 168 165 160 157 152 152 151 151 152 150 148 144 138 135 129 120 105 92 82 75 58 49 32 18 15 5 15 2 352 324 310 186 173 166
141 161 169 172 176 176 180 182 180 174 168 163 161 157 155 155 155 153 152 150 150 147 144 139 128 119 100 62 46 37 30 18 8 6 0 3 341 326 270 292 200 187 188
147 161 171 175 180 183 182 185 187 180 171 167 164 163 160 160 158 158 158 158 156 156 158 159 158 154 154 283 315 313 319 331 348 349 41 352 329 319 314 301 240 195 191
156 163 176 177 184 185 184 185 190 187 179 169 166 167 165 164 164 161 163 164 165 166 169 169 175 184 184 237 263 278 286 299 313 357 23 333 315 310 313 308 278 203 196
164 169 180 182 186 186 186 186 189 191 183 178 172 170 171 170 170 169 171 174 178 182 180 183 189 216 225 225 248 257 269 279 283 310 324 315 318 301 314 303 264 207 190
166 172 182 184 188 189 188 189 189 190 186 182 179 177 177 177 176 175 175 182 191 196 194 194 205 227 264 278 279 281 287 281 282 259 265 300 302 305 318 305 167 189 195
162 169 184 190 195 192 191 192 191 190 188 187 182 184 181 181 181 181 182 187 197 200 204 206 210 227 238 246 247 268 278 282 286 279 261 268 290 307 320 286 209 190 196
153 171 193 199 204 198 198 196 195 193 190 187 190 188 185 185 187 185 186 192 198 202 205 210 221 226 238 251 261 265 265 274 272 259 256 253 283 297 310 320 253 221 204
169 174 187 195 203 203 202 206 203 198 197 193 192 193 190 189 187 190 188 196 201 205 207 208 218 222 220 234 256 264 270 271 280 273 261 265 279 286 287 294 263 241 238
192 192 185 199 204 202 197 204 204 208 205 202 198 197 194 189 190 190 192 199 204 207 213 213 220 216 216 225 245 262 272 259 258 255 259 267 277 278 282 279 286 238 234
226 213 202 205 202 191 199 194 203 203 211 208 204 199 193 183 182 183 192 203 210 213 217 219 221 218 219 189 222 269 288 266 254 254 256 264 271 274 278 275 278 227 228
222 221 201 203 200 195 200 182 196 198 204 207 204 195 189 173 187 189 179 199 195 220 219 225 225 212 190 192 198 234 255 259 247 247 255 264 262 265 264 269 268 228 229
230 239 213 204 199 204 202 201 197 199 203 205 204 189 179 179 181 177 182 193 191 198 204 208 215 202 205 206 203 224 241 246 247 248 251 262 261 259 257 252 256 235 226
232 234 230 183 207 204 203 206 204 209 206 209 197 191 188 188 181 173 186 190 196 164 210 210 206 204 208 219 209 218 240 243 244 246 253 255 257 249 253 250 245 228 221
226 241 236 209 212 191 201 208 206 205 204 190 194 196 191 183 170 179 198 198 197 192 216 206 198 213 217 210 226 217 237 244 250 239 250 256 267 271 262 263 234 219 217
232 241 229 220 198 198 206 207 207 205 189 196 196 187 182 172 171 173 193 190 198 219 215 196 186 195 212 224 233 228 232 234 242 244 245 251 261 263 266 256 228 217 219
252 258 257 201 190 201 207 204 201 188 192 194 182 171 177 172 173 181 190 185 201 155 191 201 178 201 215 212 216 219 226 242 242 238 259 244 249 253 266 258 212 208 212
243 249 256 194 203 204 207 194 184 173 177 171 153 164 177 183 174 184 191 191 174 172 200 205 187 179 188 214 225 241 244 240 243 233 243 242 238 231 238 259 201 208 217
263 257 258 225 219 186 144 122 116 139 151 155 164 171 178 185 175 167 183 176 177 166 171 168 183 181 190 249 260 263 247 238 228 216 229 221 231 236 213 221 225 215 219
292 273 254 225 195 156 149 146 137 182 161 153 162 169 172 181 171 170 173 164 164 167 186 169 128 165 252 205 228 270 254 231 225 217 192 219 223 234 200 201 199 228 231
265 275 275 236 178 173 156 122 143 128 134 141 155 174 172 172 168 174 173 162 168 148 150 148 158 161 228 181 170 183 308 321 227 220 196 210 216 232 217 199 198 206 209
260 265 271 224 170 149 126 116 92 85 79 98 159 154 167 170 177 177 153 154 157 147 168 177 185 204 202 197 214 150 147 232 329 67 201 193 207 205 232 195 198 200 203
261 251 202 167 147 141 145 136 155 138 147 175 146 127 143 163 150 131 145 144 150 154 170 185 178 190 153 173 194 212 82 125 122 43 60 112 209 215 207 226 218 194 194
266 218 185 150 137 143 144 141 131 112 109 111 106 122 121 120 134 140 144 139 145 155 177 175 157 169 184 158 166 152 156 82 91 104 54 89 69 0 163 204 185 165 160
236 195 162 137 130 130 132 131 132 132 131 122 115 124 123 114 129 133 126 137 149 169 165 174 172 176 182 176 175 169 157 162 179 158 132 175 146 40 78 93 101 131 156